Location: Potawatomi Wildlife Park
(41.2308°N, 86.1050°W)
Time: 19:26:42
(UTC-04:00)

HST - Visible Passes

Search period start: 22 July 2014 00:00
Search period end: 01 August 2014 00:00
Orbit: 548 x 552 km, 28.5° (Epoch: 21 July)

Date Brightness Start Highest point End Pass type
(mag) Time Alt. Az. Time Alt. Az. Time Alt. Az.
22 Jul 2.9 22:57:50 10° SW 22:59:01 13° SSW 22:59:01 13° SSW visible
23 Jul 2.9 22:51:05 10° SW 22:52:30 13° SSW 22:52:30 13° SSW visible
24 Jul 3.0 22:44:31 10° SSW 22:45:57 12° SSW 22:45:57 12° SSW visible
25 Jul 3.1 22:38:27 10° SSW 22:39:03 10° SSW 22:39:21 10° S visible
